contact:dominique.lefevre@mio.osupytheas.fr, maurice.libes@osupytheas.fr, didier.mallarino@osupytheas.fr
Project:EMSO http://www.emso-fr.org/EMSO-France
Depth: 2436.0 m
Title:EMSO Ligure Ouest : Data MII capteur MICROCAT
DateTime_Computer,Latitude,Longitude,Temperature,Conductivity,Pressure,DateTime_Instrument
DateTime_Computer,Latitude,Longitude,degC,S m-1,dbar,DateTime_Instrument
2020-12-03T00:01:30Z,42.805,6.029,13.2976,4.59988,2470.203,2020-12-03T02:02:28Z
2020-12-03T00:04:34Z,42.805,6.029,13.2981,4.59986,2470.227,2020-12-03T02:05:31Z
2020-12-03T00:07:37Z,42.805,6.029,13.2986,4.59989,2470.203,2020-12-03T02:08:35Z
2020-12-03T00:10:40Z,42.805,6.029,13.2982,4.59991,2470.24,2020-12-03T02:11:38Z
2020-12-03T00:13:43Z,42.805,6.029,13.2987,4.59993,2470.203,2020-12-03T02:14:41Z
2020-12-03T00:16:46Z,42.805,6.029,13.2988,4.60002,2470.18,2020-12-03T02:17:44Z
2020-12-03T00:19:49Z,42.805,6.029,13.2980,4.59989,2470.203,2020-12-03T02:20:47Z
2020-12-03T00:22:52Z,42.805,6.029,13.2984,4.59987,2470.24,2020-12-03T02:23:50Z
2020-12-03T00:25:55Z,42.805,6.029,13.2980,4.59987,2470.18,2020-12-03T02:26:53Z
2020-12-03T00:28:58Z,42.805,6.029,13.2980,4.59993,2470.194,2020-12-03T02:29:56Z
2020-12-03T00:32:02Z,42.805,6.029,13.2982,4.59988,2470.189,2020-12-03T02:33:00Z
2020-12-03T00:35:05Z,42.805,6.029,13.2986,4.59997,2470.203,2020-12-03T02:36:03Z
2020-12-03T00:38:08Z,42.805,6.029,13.2983,4.59993,2470.203,2020-12-03T02:39:06Z
2020-12-03T00:41:11Z,42.805,6.029,13.2979,4.59994,2470.18,2020-12-03T02:42:09Z
2020-12-03T00:44:14Z,42.805,6.029,13.2979,4.59989,2470.217,2020-12-03T02:45:12Z
2020-12-03T00:47:17Z,42.805,6.029,13.2982,4.59990,2470.18,2020-12-03T02:48:15Z
2020-12-03T00:50:20Z,42.805,6.029,13.2976,4.59991,2470.18,2020-12-03T02:51:18Z
2020-12-03T00:53:23Z,42.805,6.029,13.2984,4.59996,2470.171,2020-12-03T02:54:21Z
2020-12-03T00:56:27Z,42.805,6.029,13.2986,4.59999,2470.18,2020-12-03T02:57:24Z
2020-12-03T00:59:30Z,42.805,6.029,13.2983,4.59990,2470.18,2020-12-03T03:00:28Z
2020-12-03T01:02:33Z,42.805,6.029,13.2983,4.59990,2470.194,2020-12-03T03:03:31Z
2020-12-03T01:05:36Z,42.805,6.029,13.2983,4.59990,2470.18,2020-12-03T03:06:34Z
2020-12-03T01:08:39Z,42.805,6.029,13.2990,4.59996,2470.171,2020-12-03T03:09:37Z
2020-12-03T01:11:42Z,42.805,6.029,13.2986,4.60001,2470.194,2020-12-03T03:12:40Z
2020-12-03T01:14:45Z,42.805,6.029,13.2982,4.59994,2470.156,2020-12-03T03:15:43Z
2020-12-03T01:17:48Z,42.805,6.029,13.2984,4.60001,2470.156,2020-12-03T03:18:46Z
2020-12-03T01:20:51Z,42.805,6.029,13.2978,4.59998,2470.18,2020-12-03T03:21:49Z
2020-12-03T01:23:55Z,42.805,6.029,13.2979,4.59990,2470.133,2020-12-03T03:24:52Z
2020-12-03T01:26:58Z,42.805,6.029,13.2983,4.59994,2470.156,2020-12-03T03:27:56Z
2020-12-03T01:30:01Z,42.805,6.029,13.2982,4.59987,2470.171,2020-12-03T03:30:59Z
2020-12-03T01:33:04Z,42.805,6.029,13.2984,4.59997,2470.133,2020-12-03T03:34:02Z
2020-12-03T01:36:07Z,42.805,6.029,13.2993,4.59991,2470.171,2020-12-03T03:37:05Z
2020-12-03T01:39:10Z,42.805,6.029,13.2982,4.59997,2470.171,2020-12-03T03:40:08Z
2020-12-03T01:42:13Z,42.805,6.029,13.2983,4.59994,2470.18,2020-12-03T03:43:11Z
2020-12-03T01:45:16Z,42.805,6.029,13.2982,4.59996,2470.171,2020-12-03T03:46:14Z
2020-12-03T01:48:19Z,42.805,6.029,13.2993,4.60001,2470.156,2020-12-03T03:49:17Z
2020-12-03T01:51:23Z,42.805,6.029,13.2984,4.59996,2470.18,2020-12-03T03:52:20Z
2020-12-03T01:54:26Z,42.805,6.029,13.2982,4.59991,2470.147,2020-12-03T03:55:24Z
2020-12-03T01:57:29Z,42.805,6.029,13.2983,4.59995,2470.18,2020-12-03T03:58:27Z
2020-12-03T02:00:32Z,42.805,6.029,13.2990,4.60001,2470.156,2020-12-03T04:01:30Z
2020-12-03T02:03:35Z,42.805,6.029,13.2986,4.59994,2470.171,2020-12-03T04:04:33Z
2020-12-03T02:06:38Z,42.805,6.029,13.2982,4.59993,2470.18,2020-12-03T04:07:36Z
2020-12-03T02:09:41Z,42.805,6.029,13.2987,4.59998,2470.18,2020-12-03T04:10:39Z
2020-12-03T02:12:44Z,42.805,6.029,13.2976,4.59997,2470.133,2020-12-03T04:13:42Z
2020-12-03T02:15:48Z,42.805,6.029,13.2986,4.60001,2470.156,2020-12-03T04:16:45Z
2020-12-03T02:18:51Z,42.805,6.029,13.2988,4.60001,2470.171,2020-12-03T04:19:49Z
2020-12-03T02:21:54Z,42.805,6.029,13.2989,4.60006,2470.11,2020-12-03T04:22:52Z
2020-12-03T02:24:57Z,42.805,6.029,13.2982,4.59991,2470.156,2020-12-03T04:25:55Z
2020-12-03T02:28:00Z,42.805,6.029,13.2981,4.59997,2470.171,2020-12-03T04:28:58Z
2020-12-03T02:31:03Z,42.805,6.029,13.2987,4.59994,2470.194,2020-12-03T04:32:01Z
2020-12-03T02:34:06Z,42.805,6.029,13.2983,4.59998,2470.18,2020-12-03T04:35:04Z
2020-12-03T02:37:09Z,42.805,6.029,13.2991,4.59999,2470.133,2020-12-03T04:38:07Z
2020-12-03T02:40:12Z,42.805,6.029,13.2982,4.60006,2470.133,2020-12-03T04:41:10Z
2020-12-03T02:43:16Z,42.805,6.029,13.2985,4.60003,2470.156,2020-12-03T04:44:13Z
2020-12-03T02:46:19Z,42.805,6.029,13.2986,4.60003,2470.18,2020-12-03T04:47:17Z
2020-12-03T02:49:22Z,42.805,6.029,13.2985,4.59996,2470.156,2020-12-03T04:50:20Z
2020-12-03T02:52:25Z,42.805,6.029,13.2986,4.59991,2470.18,2020-12-03T04:53:23Z
2020-12-03T02:55:28Z,42.805,6.029,13.2985,4.59997,2470.133,2020-12-03T04:56:26Z
2020-12-03T02:58:31Z,42.805,6.029,13.2983,4.59999,2470.156,2020-12-03T04:59:29Z
2020-12-03T03:01:34Z,42.805,6.029,13.2989,4.59994,2470.156,2020-12-03T05:02:32Z
2020-12-03T03:04:37Z,42.805,6.029,13.2983,4.59991,2470.156,2020-12-03T05:05:35Z
2020-12-03T03:07:40Z,42.805,6.029,13.2982,4.59988,2470.156,2020-12-03T05:08:38Z
2020-12-03T03:10:44Z,42.805,6.029,13.2983,4.59988,2470.194,2020-12-03T05:11:42Z
2020-12-03T03:13:47Z,42.805,6.029,13.2986,4.59996,2470.133,2020-12-03T05:14:45Z
2020-12-03T03:16:50Z,42.805,6.029,13.2981,4.59991,2470.156,2020-12-03T05:17:48Z
2020-12-03T03:19:53Z,42.805,6.029,13.2982,4.59995,2470.147,2020-12-03T05:20:51Z
2020-12-03T03:22:56Z,42.805,6.029,13.2987,4.59994,2470.18,2020-12-03T05:23:54Z
2020-12-03T03:25:59Z,42.805,6.029,13.2983,4.59990,2470.147,2020-12-03T05:26:57Z
2020-12-03T03:29:02Z,42.805,6.029,13.2980,4.59996,2470.147,2020-12-03T05:30:00Z
2020-12-03T03:32:05Z,42.805,6.029,13.2984,4.59999,2470.194,2020-12-03T05:33:03Z
2020-12-03T03:35:09Z,42.805,6.029,13.2984,4.59996,2470.18,2020-12-03T05:36:06Z
2020-12-03T03:38:12Z,42.805,6.029,13.2982,4.59990,2470.156,2020-12-03T05:39:10Z
2020-12-03T03:41:15Z,42.805,6.029,13.2984,4.59997,2470.147,2020-12-03T05:42:13Z
2020-12-03T03:44:18Z,42.805,6.029,13.2991,4.60000,2470.171,2020-12-03T05:45:16Z
2020-12-03T03:47:21Z,42.805,6.029,13.2985,4.60007,2470.133,2020-12-03T05:48:19Z
2020-12-03T03:50:24Z,42.805,6.029,13.2982,4.60001,2470.147,2020-12-03T05:51:22Z
2020-12-03T03:53:27Z,42.805,6.029,13.2985,4.59999,2470.156,2020-12-03T05:54:25Z
2020-12-03T03:56:30Z,42.805,6.029,13.2987,4.60008,2470.156,2020-12-03T05:57:28Z
2020-12-03T03:59:33Z,42.805,6.029,13.2988,4.59999,2470.18,2020-12-03T06:00:31Z
2020-12-03T04:02:37Z,42.805,6.029,13.2993,4.59999,2470.156,2020-12-03T06:03:35Z
2020-12-03T04:05:40Z,42.805,6.029,13.2982,4.59995,2470.156,2020-12-03T06:06:38Z
2020-12-03T04:08:43Z,42.805,6.029,13.2991,4.60003,2470.171,2020-12-03T06:09:41Z
2020-12-03T04:11:46Z,42.805,6.029,13.2984,4.59998,2470.18,2020-12-03T06:12:44Z
2020-12-03T04:14:49Z,42.805,6.029,13.2985,4.60009,2470.18,2020-12-03T06:15:47Z
2020-12-03T04:17:52Z,42.805,6.029,13.2985,4.60002,2470.156,2020-12-03T06:18:50Z
2020-12-03T04:20:55Z,42.805,6.029,13.2987,4.59996,2470.171,2020-12-03T06:21:53Z
2020-12-03T04:23:58Z,42.805,6.029,13.2991,4.60005,2470.18,2020-12-03T06:24:56Z
2020-12-03T04:27:02Z,42.805,6.029,13.2980,4.59995,2470.18,2020-12-03T06:27:59Z
2020-12-03T04:30:05Z,42.805,6.029,13.2986,4.60000,2470.156,2020-12-03T06:31:03Z
2020-12-03T04:33:08Z,42.805,6.029,13.2981,4.59998,2470.156,2020-12-03T06:34:06Z
2020-12-03T04:36:11Z,42.805,6.029,13.2978,4.59994,2470.24,2020-12-03T06:37:09Z
2020-12-03T04:39:14Z,42.805,6.029,13.2985,4.60011,2470.203,2020-12-03T06:40:12Z
2020-12-03T04:42:17Z,42.805,6.029,13.2988,4.60004,2470.194,2020-12-03T06:43:15Z
2020-12-03T04:45:20Z,42.805,6.029,13.2979,4.60001,2470.194,2020-12-03T06:46:18Z
2020-12-03T04:48:23Z,42.805,6.029,13.2987,4.60001,2470.194,2020-12-03T06:49:21Z
2020-12-03T04:51:26Z,42.805,6.029,13.2982,4.59997,2470.18,2020-12-03T06:52:24Z
2020-12-03T04:54:30Z,42.805,6.029,13.2976,4.59990,2470.203,2020-12-03T06:55:28Z
2020-12-03T04:57:33Z,42.805,6.029,13.2985,4.60020,2470.194,2020-12-03T06:58:31Z
2020-12-03T05:00:36Z,42.805,6.029,13.2988,4.60011,2470.194,2020-12-03T07:01:34Z
2020-12-03T05:03:39Z,42.805,6.029,13.2986,4.60003,2470.18,2020-12-03T07:04:37Z
2020-12-03T05:06:42Z,42.805,6.029,13.2986,4.59996,2470.203,2020-12-03T07:07:40Z
2020-12-03T05:09:45Z,42.805,6.029,13.2983,4.60001,2470.227,2020-12-03T07:10:43Z
2020-12-03T05:12:48Z,42.805,6.029,13.2994,4.60000,2470.217,2020-12-03T07:13:46Z
2020-12-03T05:15:51Z,42.805,6.029,13.2988,4.60001,2470.227,2020-12-03T07:16:49Z
2020-12-03T05:18:55Z,42.805,6.029,13.2990,4.60003,2470.227,2020-12-03T07:19:52Z
2020-12-03T05:21:58Z,42.805,6.029,13.2983,4.59997,2470.203,2020-12-03T07:22:56Z
2020-12-03T05:25:01Z,42.805,6.029,13.2988,4.60003,2470.264,2020-12-03T07:25:59Z
2020-12-03T05:28:04Z,42.805,6.029,13.2981,4.59999,2470.217,2020-12-03T07:29:02Z
2020-12-03T05:31:07Z,42.805,6.029,13.2983,4.59998,2470.227,2020-12-03T07:32:05Z
2020-12-03T05:34:10Z,42.805,6.029,13.2979,4.59999,2470.227,2020-12-03T07:35:08Z
2020-12-03T05:37:13Z,42.805,6.029,13.2988,4.60010,2470.18,2020-12-03T07:38:11Z
2020-12-03T05:40:16Z,42.805,6.029,13.2993,4.60011,2470.217,2020-12-03T07:41:14Z
2020-12-03T05:43:20Z,42.805,6.029,13.3001,4.60008,2470.24,2020-12-03T07:44:17Z
2020-12-03T05:46:23Z,42.805,6.029,13.2996,4.59997,2470.25,2020-12-03T07:47:21Z
2020-12-03T05:49:26Z,42.805,6.029,13.2991,4.60003,2470.227,2020-12-03T07:50:24Z
2020-12-03T05:52:29Z,42.805,6.029,13.2990,4.60001,2470.217,2020-12-03T07:53:27Z
2020-12-03T05:55:32Z,42.805,6.029,13.2991,4.60011,2470.287,2020-12-03T07:56:30Z
2020-12-03T05:58:35Z,42.805,6.029,13.2993,4.60009,2470.25,2020-12-03T07:59:33Z
2020-12-03T06:01:38Z,42.805,6.029,13.2987,4.60009,2470.287,2020-12-03T08:02:36Z
2020-12-03T06:04:41Z,42.805,6.029,13.3002,4.59998,2470.25,2020-12-03T08:05:39Z
2020-12-03T06:07:44Z,42.805,6.029,13.2986,4.59998,2470.264,2020-12-03T08:08:42Z
2020-12-03T06:10:48Z,42.805,6.029,13.2990,4.60008,2470.273,2020-12-03T08:11:46Z
2020-12-03T06:13:51Z,42.805,6.029,13.2983,4.59996,2470.25,2020-12-03T08:14:49Z
2020-12-03T06:16:54Z,42.805,6.029,13.2990,4.59999,2470.264,2020-12-03T08:17:52Z
2020-12-03T06:19:57Z,42.805,6.029,13.2987,4.60009,2470.25,2020-12-03T08:20:55Z
2020-12-03T06:23:00Z,42.805,6.029,13.2994,4.60011,2470.25,2020-12-03T08:23:58Z
2020-12-03T06:26:03Z,42.805,6.029,13.3004,4.60002,2470.264,2020-12-03T08:27:01Z
2020-12-03T06:29:06Z,42.805,6.029,13.2986,4.60007,2470.273,2020-12-03T08:30:04Z
2020-12-03T06:32:09Z,42.805,6.029,13.2988,4.60006,2470.273,2020-12-03T08:33:07Z
2020-12-03T06:35:13Z,42.805,6.029,13.2996,4.60014,2470.297,2020-12-03T08:36:10Z
2020-12-03T06:38:16Z,42.805,6.029,13.2991,4.60003,2470.297,2020-12-03T08:39:14Z
2020-12-03T06:41:19Z,42.805,6.029,13.2991,4.60000,2470.297,2020-12-03T08:42:17Z
2020-12-03T06:44:22Z,42.805,6.029,13.2992,4.59999,2470.297,2020-12-03T08:45:20Z
2020-12-03T06:47:25Z,42.805,6.029,13.3000,4.60007,2470.287,2020-12-03T08:48:23Z
2020-12-03T06:50:28Z,42.805,6.029,13.2989,4.60016,2470.32,2020-12-03T08:51:26Z
2020-12-03T06:53:31Z,42.805,6.029,13.2998,4.60010,2470.297,2020-12-03T08:54:29Z
2020-12-03T06:56:34Z,42.805,6.029,13.3000,4.60003,2470.283,2020-12-03T08:57:32Z
2020-12-03T06:59:37Z,42.805,6.029,13.2984,4.60011,2470.31,2020-12-03T09:00:35Z
2020-12-03T07:02:41Z,42.805,6.029,13.2988,4.60009,2470.297,2020-12-03T09:03:39Z
2020-12-03T07:05:44Z,42.805,6.029,13.2998,4.60009,2470.297,2020-12-03T09:06:42Z
2020-12-03T07:08:47Z,42.805,6.029,13.2993,4.60003,2470.31,2020-12-03T09:09:45Z
2020-12-03T07:11:50Z,42.805,6.029,13.3004,4.60005,2470.32,2020-12-03T09:12:48Z
2020-12-03T07:14:53Z,42.805,6.029,13.2998,4.60003,2470.32,2020-12-03T09:15:51Z
2020-12-03T07:17:56Z,42.805,6.029,13.3006,4.60007,2470.297,2020-12-03T09:18:54Z
2020-12-03T07:20:59Z,42.805,6.029,13.2994,4.60011,2470.32,2020-12-03T09:21:57Z
2020-12-03T07:24:02Z,42.805,6.029,13.2996,4.59994,2470.31,2020-12-03T09:25:00Z
2020-12-03T07:27:05Z,42.805,6.029,13.2990,4.60000,2470.297,2020-12-03T09:28:03Z
2020-12-03T07:30:09Z,42.805,6.029,13.2993,4.59997,2470.297,2020-12-03T09:31:07Z
2020-12-03T07:33:12Z,42.805,6.029,13.2996,4.60011,2470.343,2020-12-03T09:34:10Z
2020-12-03T07:36:15Z,42.805,6.029,13.2993,4.59997,2470.366,2020-12-03T09:37:13Z
2020-12-03T07:39:18Z,42.805,6.029,13.2993,4.60016,2470.32,2020-12-03T09:40:16Z
2020-12-03T07:42:21Z,42.805,6.029,13.2999,4.60009,2470.38,2020-12-03T09:43:19Z
2020-12-03T07:45:24Z,42.805,6.029,13.2992,4.60001,2470.343,2020-12-03T09:46:22Z
2020-12-03T07:48:27Z,42.805,6.029,13.2992,4.59996,2470.32,2020-12-03T09:49:25Z
2020-12-03T07:51:30Z,42.805,6.029,13.2990,4.60003,2470.357,2020-12-03T09:52:28Z
2020-12-03T07:54:34Z,42.805,6.029,13.2994,4.59996,2470.366,2020-12-03T09:55:31Z
2020-12-03T07:57:37Z,42.805,6.029,13.3019,4.60006,2470.343,2020-12-03T09:58:35Z
2020-12-03T08:00:40Z,42.805,6.029,13.2993,4.59993,2470.366,2020-12-03T10:01:38Z
2020-12-03T08:03:43Z,42.805,6.029,13.3000,4.60009,2470.343,2020-12-03T10:04:41Z
2020-12-03T08:06:46Z,42.805,6.029,13.2991,4.60004,2470.357,2020-12-03T10:07:44Z
2020-12-03T08:09:49Z,42.805,6.029,13.2996,4.59999,2470.343,2020-12-03T10:10:47Z
2020-12-03T08:12:52Z,42.805,6.029,13.2999,4.59998,2470.38,2020-12-03T10:13:50Z
2020-12-03T08:15:55Z,42.805,6.029,13.2994,4.59996,2470.366,2020-12-03T10:16:53Z
2020-12-03T08:18:59Z,42.805,6.029,13.2994,4.59998,2470.343,2020-12-03T10:19:56Z
2020-12-03T08:22:02Z,42.805,6.029,13.2998,4.60006,2470.357,2020-12-03T10:23:00Z
2020-12-03T08:25:05Z,42.805,6.029,13.2993,4.59995,2470.366,2020-12-03T10:26:03Z
2020-12-03T08:28:08Z,42.805,6.029,13.3006,4.59998,2470.38,2020-12-03T10:29:06Z
2020-12-03T08:31:11Z,42.805,6.029,13.2992,4.60007,2470.366,2020-12-03T10:32:09Z
2020-12-03T08:34:14Z,42.805,6.029,13.2996,4.60003,2470.404,2020-12-03T10:35:12Z
2020-12-03T08:37:17Z,42.805,6.029,13.2997,4.59997,2470.38,2020-12-03T10:38:15Z
2020-12-03T08:40:20Z,42.805,6.029,13.2991,4.60002,2470.404,2020-12-03T10:41:18Z
2020-12-03T08:43:23Z,42.805,6.029,13.2993,4.60011,2470.343,2020-12-03T10:44:21Z
2020-12-03T08:46:27Z,42.805,6.029,13.3001,4.60025,2470.366,2020-12-03T10:47:25Z
2020-12-03T08:49:30Z,42.805,6.029,13.2994,4.59997,2470.343,2020-12-03T10:50:28Z
2020-12-03T08:52:33Z,42.805,6.029,13.3000,4.59996,2470.366,2020-12-03T10:53:31Z
2020-12-03T08:55:36Z,42.805,6.029,13.2992,4.60020,2470.366,2020-12-03T10:56:34Z
2020-12-03T08:58:39Z,42.805,6.029,13.2993,4.60005,2470.357,2020-12-03T10:59:37Z
2020-12-03T09:01:42Z,42.805,6.029,13.2991,4.59991,2470.366,2020-12-03T11:02:40Z
2020-12-03T09:04:45Z,42.805,6.029,13.2991,4.59994,2470.38,2020-12-03T11:05:43Z
2020-12-03T09:07:48Z,42.805,6.029,13.2985,4.59991,2470.38,2020-12-03T11:08:46Z
2020-12-03T09:10:52Z,42.805,6.029,13.2994,4.59996,2470.366,2020-12-03T11:11:50Z
2020-12-03T09:13:55Z,42.805,6.029,13.2988,4.59998,2470.38,2020-12-03T11:14:53Z
2020-12-03T09:16:58Z,42.805,6.029,13.2998,4.59993,2470.343,2020-12-03T11:17:56Z
2020-12-03T09:20:01Z,42.805,6.029,13.2993,4.59994,2470.39,2020-12-03T11:20:59Z
2020-12-03T09:23:04Z,42.805,6.029,13.2996,4.60000,2470.38,2020-12-03T11:24:02Z
2020-12-03T09:26:07Z,42.805,6.029,13.2990,4.59994,2470.39,2020-12-03T11:27:05Z
2020-12-03T09:29:10Z,42.805,6.029,13.2993,4.59996,2470.366,2020-12-03T11:30:08Z
2020-12-03T09:32:13Z,42.805,6.029,13.2994,4.59993,2470.32,2020-12-03T11:33:11Z
2020-12-03T09:35:17Z,42.805,6.029,13.2999,4.60006,2470.394,2020-12-03T11:36:15Z
2020-12-03T09:38:20Z,42.805,6.029,13.2990,4.59996,2470.404,2020-12-03T11:39:18Z
2020-12-03T09:41:23Z,42.805,6.029,13.2998,4.59991,2470.357,2020-12-03T11:42:21Z
2020-12-03T09:44:26Z,42.805,6.029,13.2992,4.59996,2470.366,2020-12-03T11:45:24Z
2020-12-03T09:47:29Z,42.805,6.029,13.2993,4.59993,2470.357,2020-12-03T11:48:27Z
2020-12-03T09:50:32Z,42.805,6.029,13.2993,4.59996,2470.343,2020-12-03T11:51:30Z
2020-12-03T09:53:35Z,42.805,6.029,13.2989,4.59998,2470.32,2020-12-03T11:54:33Z
2020-12-03T09:56:38Z,42.805,6.029,13.2991,4.59994,2470.343,2020-12-03T11:57:36Z
2020-12-03T09:59:42Z,42.805,6.029,13.2994,4.59994,2470.38,2020-12-03T12:00:40Z
2020-12-03T10:02:45Z,42.805,6.029,13.2996,4.59993,2470.334,2020-12-03T12:03:43Z
2020-12-03T10:05:48Z,42.805,6.029,13.2993,4.59997,2470.32,2020-12-03T12:06:46Z
2020-12-03T10:08:51Z,42.805,6.029,13.3001,4.59996,2470.38,2020-12-03T12:09:49Z
2020-12-03T10:11:54Z,42.805,6.029,13.2989,4.60003,2470.404,2020-12-03T12:12:52Z
2020-12-03T10:14:57Z,42.805,6.029,13.2997,4.59995,2470.357,2020-12-03T12:15:55Z
2020-12-03T10:18:00Z,42.805,6.029,13.2996,4.59992,2470.343,2020-12-03T12:18:58Z
2020-12-03T10:21:03Z,42.805,6.029,13.2990,4.59996,2470.343,2020-12-03T12:22:01Z
2020-12-03T10:24:07Z,42.805,6.029,13.2993,4.59996,2470.343,2020-12-03T12:25:04Z
2020-12-03T10:27:10Z,42.805,6.029,13.2997,4.59992,2470.343,2020-12-03T12:28:08Z
2020-12-03T10:30:13Z,42.805,6.029,13.2994,4.59995,2470.366,2020-12-03T12:31:11Z
2020-12-03T10:33:16Z,42.805,6.029,13.2990,4.59992,2470.357,2020-12-03T12:34:14Z
2020-12-03T10:36:19Z,42.805,6.029,13.2996,4.59993,2470.366,2020-12-03T12:37:17Z
2020-12-03T10:39:22Z,42.805,6.029,13.2994,4.59997,2470.343,2020-12-03T12:40:20Z
2020-12-03T10:42:25Z,42.805,6.029,13.3004,4.59994,2470.357,2020-12-03T12:43:23Z
2020-12-03T10:45:28Z,42.805,6.029,13.2992,4.59997,2470.334,2020-12-03T12:46:26Z
2020-12-03T10:48:32Z,42.805,6.029,13.2998,4.59995,2470.343,2020-12-03T12:49:30Z
2020-12-03T10:51:35Z,42.805,6.029,13.2994,4.59999,2470.343,2020-12-03T12:52:33Z
2020-12-03T10:54:38Z,42.805,6.029,13.2999,4.59999,2470.32,2020-12-03T12:55:36Z
2020-12-03T10:57:41Z,42.805,6.029,13.3000,4.59995,2470.297,2020-12-03T12:58:39Z
2020-12-03T11:00:44Z,42.805,6.029,13.2999,4.59999,2470.343,2020-12-03T13:01:42Z
2020-12-03T11:03:47Z,42.805,6.029,13.2997,4.60001,2470.334,2020-12-03T13:04:45Z
2020-12-03T11:06:50Z,42.805,6.029,13.3000,4.59997,2470.297,2020-12-03T13:07:48Z
2020-12-03T11:09:53Z,42.805,6.029,13.2996,4.59996,2470.32,2020-12-03T13:10:51Z
2020-12-03T11:12:57Z,42.805,6.029,13.2995,4.59999,2470.32,2020-12-03T13:13:54Z
2020-12-03T11:16:00Z,42.805,6.029,13.3001,4.59997,2470.32,2020-12-03T13:16:58Z
2020-12-03T11:19:03Z,42.805,6.029,13.3007,4.60000,2470.32,2020-12-03T13:20:01Z
2020-12-03T11:22:06Z,42.805,6.029,13.2999,4.60005,2470.32,2020-12-03T13:23:04Z
2020-12-03T11:25:09Z,42.805,6.029,13.2999,4.60003,2470.297,2020-12-03T13:26:07Z
2020-12-03T11:28:12Z,42.805,6.029,13.3004,4.60001,2470.297,2020-12-03T13:29:10Z
2020-12-03T11:31:15Z,42.805,6.029,13.3004,4.60005,2470.343,2020-12-03T13:32:13Z
2020-12-03T11:34:18Z,42.805,6.029,13.3011,4.60001,2470.32,2020-12-03T13:35:16Z
2020-12-03T11:37:21Z,42.805,6.029,13.2997,4.59999,2470.297,2020-12-03T13:38:19Z
2020-12-03T11:40:25Z,42.805,6.029,13.2996,4.59998,2470.32,2020-12-03T13:41:23Z
2020-12-03T11:43:28Z,42.805,6.029,13.2998,4.59996,2470.297,2020-12-03T13:44:26Z
2020-12-03T11:46:31Z,42.805,6.029,13.3004,4.60003,2470.273,2020-12-03T13:47:29Z
2020-12-03T11:49:34Z,42.805,6.029,13.3003,4.60001,2470.25,2020-12-03T13:50:32Z
2020-12-03T11:52:37Z,42.805,6.029,13.3002,4.59999,2470.264,2020-12-03T13:53:35Z
2020-12-03T11:55:40Z,42.805,6.029,13.2999,4.59994,2470.297,2020-12-03T13:56:38Z
2020-12-03T11:58:43Z,42.805,6.029,13.3000,4.59998,2470.297,2020-12-03T13:59:41Z
2020-12-03T12:01:46Z,42.805,6.029,13.2996,4.60001,2470.273,2020-12-03T14:02:44Z
2020-12-03T12:04:50Z,42.805,6.029,13.2995,4.60008,2470.297,2020-12-03T14:05:48Z
2020-12-03T12:07:53Z,42.805,6.029,13.3000,4.59999,2470.25,2020-12-03T14:08:51Z
2020-12-03T12:10:56Z,42.805,6.029,13.3004,4.59999,2470.25,2020-12-03T14:11:54Z
2020-12-03T12:13:59Z,42.805,6.029,13.2997,4.59997,2470.264,2020-12-03T14:14:57Z
2020-12-03T12:17:02Z,42.805,6.029,13.3000,4.60000,2470.25,2020-12-03T14:18:00Z
2020-12-03T12:20:05Z,42.805,6.029,13.2998,4.60001,2470.25,2020-12-03T14:21:03Z
2020-12-03T12:23:08Z,42.805,6.029,13.2998,4.60001,2470.264,2020-12-03T14:24:06Z
2020-12-03T12:26:11Z,42.805,6.029,13.2994,4.59996,2470.273,2020-12-03T14:27:09Z
2020-12-03T12:29:15Z,42.805,6.029,13.3001,4.59996,2470.31,2020-12-03T14:30:13Z
2020-12-03T12:32:18Z,42.805,6.029,13.2999,4.59997,2470.287,2020-12-03T14:33:16Z
2020-12-03T12:35:21Z,42.805,6.029,13.2999,4.59999,2470.273,2020-12-03T14:36:19Z
2020-12-03T12:38:24Z,42.805,6.029,13.2992,4.60001,2470.287,2020-12-03T14:39:22Z
2020-12-03T12:41:27Z,42.805,6.029,13.2997,4.59999,2470.287,2020-12-03T14:42:25Z
2020-12-03T12:44:30Z,42.805,6.029,13.3000,4.59999,2470.24,2020-12-03T14:45:28Z
2020-12-03T12:47:33Z,42.805,6.029,13.3005,4.60003,2470.264,2020-12-03T14:48:31Z
2020-12-03T12:50:36Z,42.805,6.029,13.2998,4.60011,2470.24,2020-12-03T14:51:34Z
2020-12-03T12:53:40Z,42.805,6.029,13.3004,4.59994,2470.25,2020-12-03T14:54:38Z
2020-12-03T12:56:43Z,42.805,6.029,13.2999,4.60004,2470.24,2020-12-03T14:57:41Z
2020-12-03T12:59:46Z,42.805,6.029,13.2996,4.59997,2470.203,2020-12-03T15:00:44Z
2020-12-03T13:02:49Z,42.805,6.029,13.3008,4.60002,2470.264,2020-12-03T15:03:47Z
2020-12-03T13:05:52Z,42.805,6.029,13.3000,4.60002,2470.227,2020-12-03T15:06:50Z
2020-12-03T13:08:55Z,42.805,6.029,13.3000,4.60003,2470.264,2020-12-03T15:09:53Z
2020-12-03T13:11:58Z,42.805,6.029,13.3009,4.59999,2470.24,2020-12-03T15:12:56Z
2020-12-03T13:15:01Z,42.805,6.029,13.3005,4.60002,2470.227,2020-12-03T15:15:59Z
2020-12-03T13:18:05Z,42.805,6.029,13.2998,4.60001,2470.25,2020-12-03T15:19:03Z
2020-12-03T13:21:08Z,42.805,6.029,13.2998,4.60006,2470.227,2020-12-03T15:22:06Z
2020-12-03T13:24:11Z,42.805,6.029,13.3006,4.60001,2470.227,2020-12-03T15:25:09Z
2020-12-03T13:27:14Z,42.805,6.029,13.2998,4.60003,2470.203,2020-12-03T15:28:12Z
2020-12-03T13:30:17Z,42.805,6.029,13.3002,4.60003,2470.25,2020-12-03T15:31:15Z
2020-12-03T13:33:20Z,42.805,6.029,13.2994,4.60001,2470.227,2020-12-03T15:34:18Z
2020-12-03T13:36:23Z,42.805,6.029,13.2993,4.59999,2470.227,2020-12-03T15:37:21Z
2020-12-03T13:39:26Z,42.805,6.029,13.3001,4.59996,2470.24,2020-12-03T15:40:24Z
2020-12-03T13:42:30Z,42.805,6.029,13.3004,4.60010,2470.203,2020-12-03T15:43:27Z
2020-12-03T13:45:33Z,42.805,6.029,13.3002,4.60002,2470.227,2020-12-03T15:46:31Z
2020-12-03T13:48:36Z,42.805,6.029,13.3005,4.59994,2470.227,2020-12-03T15:49:34Z
2020-12-03T13:51:39Z,42.805,6.029,13.2995,4.60004,2470.18,2020-12-03T15:52:37Z
2020-12-03T13:54:42Z,42.805,6.029,13.3000,4.60001,2470.203,2020-12-03T15:55:40Z
2020-12-03T13:57:45Z,42.805,6.029,13.3014,4.60004,2470.18,2020-12-03T15:58:43Z
2020-12-03T14:00:48Z,42.805,6.029,13.2997,4.59998,2470.217,2020-12-03T16:01:46Z
2020-12-03T14:03:51Z,42.805,6.029,13.3012,4.60000,2470.156,2020-12-03T16:04:49Z
2020-12-03T14:06:55Z,42.805,6.029,13.2995,4.60003,2470.217,2020-12-03T16:07:52Z
2020-12-03T14:09:58Z,42.805,6.029,13.3002,4.60002,2470.203,2020-12-03T16:10:56Z
2020-12-03T14:13:01Z,42.805,6.029,13.2994,4.59998,2470.156,2020-12-03T16:13:59Z
2020-12-03T14:16:04Z,42.805,6.029,13.2998,4.59994,2470.194,2020-12-03T16:17:02Z
2020-12-03T14:19:07Z,42.805,6.029,13.2995,4.59999,2470.18,2020-12-03T16:20:05Z
2020-12-03T14:22:10Z,42.805,6.029,13.2992,4.59996,2470.203,2020-12-03T16:23:08Z
2020-12-03T14:25:13Z,42.805,6.029,13.2997,4.59996,2470.18,2020-12-03T16:26:11Z
2020-12-03T14:28:16Z,42.805,6.029,13.3000,4.59997,2470.18,2020-12-03T16:29:14Z
2020-12-03T14:31:19Z,42.805,6.029,13.2999,4.60001,2470.18,2020-12-03T16:32:17Z
2020-12-03T14:34:23Z,42.805,6.029,13.2997,4.59994,2470.18,2020-12-03T16:35:21Z
2020-12-03T14:37:26Z,42.805,6.029,13.2996,4.59999,2470.217,2020-12-03T16:38:24Z
2020-12-03T14:40:29Z,42.805,6.029,13.3000,4.59999,2470.217,2020-12-03T16:41:27Z
2020-12-03T14:43:32Z,42.805,6.029,13.3003,4.59997,2470.18,2020-12-03T16:44:30Z
2020-12-03T14:46:35Z,42.805,6.029,13.2998,4.59999,2470.156,2020-12-03T16:47:33Z
2020-12-03T14:49:38Z,42.805,6.029,13.2996,4.59998,2470.18,2020-12-03T16:50:36Z
2020-12-03T14:52:41Z,42.805,6.029,13.2999,4.59998,2470.18,2020-12-03T16:53:39Z
2020-12-03T14:55:44Z,42.805,6.029,13.3006,4.59999,2470.147,2020-12-03T16:56:42Z
2020-12-03T14:58:48Z,42.805,6.029,13.3003,4.59996,2470.217,2020-12-03T16:59:46Z
2020-12-03T15:01:51Z,42.805,6.029,13.3003,4.60008,2470.18,2020-12-03T17:02:49Z